Вернуться в каталог

STARLINK-2466

АктивенСвязьVLEO
NORAD 48125·PAYLOAD·🇺🇸 United States

Запущен Apr 7, 2021 с Cape Canaveral Space Force Station

Loading…

Ближайшие Пролёты (ближайшие 24 часа)

TLE

СвежийSource: CelesTrak SupGP

Эпоха: Sep 14, 2026, 12:29 UTC

1 48125C 21027AK  26257.52062500 -.00021268  00000+0 -68403-3 0  2575
2 48125  53.1600   6.8096 0001317  78.8488  91.4518 15.31707027    13

Отслеживайте STARLINK-2466 в реальном времени с AllMySat

Download on the App Store